Location: Azul
(36.7830°S, 59.8500°W)
Time: 01:35:02
(UTC-03:00)

TIGRISAT - Visible Passes

Search period start: 23 October 2021 00:00
Search period end: 02 November 2021 00:00
Orbit: 605 x 688 km, 97.7° (Epoch: 22 October)

Date Brightness Start Highest point End Pass type
(mag) Time Alt. Az. Time Alt. Az. Time Alt. Az.
23 Oct ? 19:46:37 10° NNW 19:50:38 40° W 19:54:43 10° SSW visible
24 Oct ? 20:12:58 10° NW 20:16:10 21° W 20:19:26 10° SW visible
25 Oct ? 20:41:11 10° W 20:41:48 10° W 20:42:24 10° W visible
27 Oct ? 19:51:41 10° NNW 19:55:35 35° W 19:59:35 10° SSW visible
28 Oct ? 20:18:12 10° NW 20:21:09 18° W 20:24:09 10° SW visible
31 Oct ? 19:56:46 10° NNW 20:00:33 30° W 20:04:26 10° SW visible
01 Nov ? 20:23:30 10° NW 20:26:08 16° W 20:28:48 10° SW visible
